Location: La Chapelle-Blanche
(48.2656°N, 2.1456°W)
Time: 20:16:49
(UTC+00:00)

Daily predictions for brighter satellites

Satellite Brightness Start Highest point End
(mag) Time Altitude Azimuth Time Altitude Azimuth Time Altitude Azimuth
Cosmos 2322 3.8 17:13:48 10° SSW 17:19:31 83° ESE 17:25:17 10° NNE
USA 215 3.6 17:17:12 10° NE 17:23:39 62° NNW 17:30:04 10° WSW
Cosmos 2228 Rocket 3.9 17:21:06 10° SSE 17:25:05 31° E 17:29:06 10° NNE
Cosmos 2279 Rocket 4.1 17:20:22 10° N 17:26:29 56° ENE 17:32:32 10° SSE
Meteor 1-12 Rocket 4.3 17:21:30 10° N 17:27:16 86° E 17:33:04 10° SSE
NOSS 8 (A) 4.4 17:25:10 10° NNW 17:27:59 45° NE 17:31:13 10° ESE
Cosmos 1898 Rocket 4.0 17:23:56 10° N 17:28:50 37° ENE 17:33:44 10° SE
PSLV R/B 3.4 17:29:26 10° SSE 17:33:28 68° ENE 17:37:32 10° N
Cosmos 1980 4.1 17:33:29 10° S 17:38:49 45° ESE 17:44:10 10° NE
Okean 1-7 4.2 17:35:29 10° SE 17:38:50 23° E 17:42:11 10° NE
SL-16 R/B 3.9 17:36:21 10° ESE 17:38:56 13° E 17:40:55 11° ENE
SMAP 3.4 17:37:55 10° S 17:42:33 71° WSW 17:47:13 10° NNW
Cosmos 1953 2.2 17:39:32 10° N 17:43:12 53° ENE 17:46:50 10° SSE
Meteor 1-23 Rocket 4.5 17:37:48 10° SSW 17:43:23 74° WNW 17:48:59 10° N
Lacrosse 5 4.4 17:41:38 10° WNW 17:45:45 25° SW 17:49:52 10° S
CZ-2D R/B 4.4 17:44:24 10° S 17:48:33 53° W 17:52:43 10° NNW
NOSS 0 Rocket 3.9 17:42:31 10° SSW 17:48:38 72° ESE 17:54:46 10° NNE
SKYMED 2 4.2 17:45:48 10° NNE 17:49:50 36° E 17:53:51 10° SSE
Cosmos 1818 4.2 17:46:08 10° NNW 17:51:12 36° NE 17:56:12 10° ESE
ATLAS 2AS CENTAUR R/B 3.1 17:46:11 10° NW 17:52:39 42° NE 17:58:56 10° ESE
NOSS 8 (H) 4.4 17:49:27 10° SSW 17:53:29 73° SE 17:55:54 17° NE
Cosmos 2369 Rocket 3.4 17:50:01 10° N 17:54:15 21° NE 17:56:55 16° ENE
SL-16 R/B 4.4 17:49:40 10° N 17:54:50 28° WNW 18:00:01 10° WSW
COSMOS 2428 3.1 17:50:17 10° SW 17:55:57 66° WNW 18:01:38 10° NNE
ACS3 Solar Sail 2.1 17:50:25 10° SE 17:56:28 47° ENE 18:02:32 10° N
IGS 5A 3.5 17:53:14 10° S 17:57:15 82° WSW 18:01:17 10° NNW
Cosmos 2333 Rocket 4.2 17:53:35 10° W 17:57:49 21° NW 18:02:05 10° N
Cosmos 372 Rocket 3.9 17:53:59 10° NNW 17:59:02 59° ENE 18:04:02 10° SE
Cosmos 1174 4.0 17:55:57 10° NW 17:59:35 72° SW 18:04:01 10° SSE
DNEPR-1 R/B 3.6 17:58:46 10° NW 18:03:42 90° SSW 18:07:58 10° SE
BREEZE-M DEB (TANK) 3.7 17:54:36 10° WSW 18:04:56 87° NNW 18:07:22 21° ENE
Cosmos 2322 Rocket 4.4 18:03:35 10° WNW 18:07:11 17° NW 18:10:47 10° N
Cosmos 1908 Rocket 4.1 18:03:23 10° N 18:07:21 33° ENE 18:11:16 10° SE
Cosmos 2360 Rocket 4.3 18:06:06 10° W 18:10:02 19° NW 18:13:59 10° N
Meteor 1-31 Rocket 2.7 18:09:15 10° SSE 18:12:41 48° ENE 18:16:10 10° N
Okean 3 3.5 18:08:48 10° SSW 18:12:54 80° WNW 18:17:03 10° N
Cosmos 1707 Rocket 3.6 18:09:15 10° S 18:13:41 87° W 18:18:09 10° N
EO 1 Delta rocket 3.9 18:09:07 10° NNE 18:13:45 53° E 18:18:17 10° S
Okean 2 3.2 18:12:44 10° S 18:16:42 89° NW 18:20:40 10° N
Cosmos 2297 4.4 18:12:32 10° NNW 18:17:39 32° NE 18:20:17 22° E
Cosmos 1937 Rocket 3.4 18:13:55 10° NNW 18:19:03 65° ENE 18:24:10 10° SSE
CZ-4 R/B 4.4 18:16:30 10° SSE 18:20:31 82° WSW 18:24:32 10° NNW
CZ-2C R/B 3.3 18:22:18 30° NE 18:22:18 30° NE 18:24:40 10° N
Cosmos 2026 Rocket 4.5 18:16:48 10° SSE 18:22:32 37° E 18:28:17 10° NNE
BREEZE-M DEB (TANK) 3.9 18:09:33 10° WSW 18:26:10 71° SSE 18:28:56 27° E
Cosmos 1943 Rocket 2.8 18:22:17 10° NW 18:27:49 58° WSW 18:33:18 10° S
RESURS DK-1 3.2 18:24:39 10° NW 18:28:35 51° WSW 18:32:29 10° S
Cosmos 1862 Rocket 4.0 18:27:18 10° SSW 18:31:38 64° WNW 18:36:02 10° N
Cosmos 2237 Rocket 2.3 18:27:10 10° SSW 18:32:51 79° WNW 18:37:58 13° NNE
BlueWalker 3 1.9 18:29:35 10° WNW 18:33:11 55° NNE 18:33:53 46° ENE
NOAA 15 4.5 18:30:17 10° SSE 18:35:30 76° ENE 18:40:45 10° NNW
COSMO-SKYMED 1 2.7 18:33:42 10° N 18:38:03 75° WNW 18:42:23 10° SSW
CZ-4B R/B 3.5 18:34:54 10° SSE 18:38:30 84° WSW 18:42:04 10° NNW
ISS -3.9 18:35:14 10° WSW 18:38:35 86° NNW 18:39:01 65° ENE
NOAA 6 4.0 18:35:20 10° SSE 18:40:27 87° WSW 18:45:37 10° NNW
USA 306 3.5 18:39:33 10° NW 18:40:49 24° NNW 18:40:49 24° NNW
Cosmos 2278 Rocket 3.9 18:36:57 10° NW 18:42:04 35° WSW 18:47:08 10° S
Cosmos 2344 3.9 18:35:39 10° WSW 18:43:02 60° NW 18:48:48 17° NE
Cosmos 1782 Rocket 4.5 18:39:06 10° N 18:41:42 30° NNE 18:41:42 30° NNE
Cosmos 2219 Rocket 4.4 18:41:17 10° W 18:45:04 18° NW 18:48:52 10° N
YAOGAN 1 2.6 18:44:51 10° S 18:49:07 80° WSW 18:53:25 10° NNW
CZ-4C R/B 1.8 18:46:23 10° SW 18:50:48 88° NW 18:53:04 35° NE
YAOGAN 11 4.0 18:51:30 54° ENE 18:52:06 60° ESE 18:56:19 10° S
Nadezhda 4 Rocket 4.0 18:46:40 10° SSW 18:52:46 79° W 18:58:57 10° N
ATLAS 5 CENTAUR R/B 1.7 18:52:27 10° SSW 18:54:38 39° S 18:54:38 39° S
Cosmos 2195 Rocket 4.3 18:51:09 10° S 18:57:19 76° E 19:03:28 10° NNE
Meteor 1-24 Rocket 4.1 18:51:52 10° SSE 18:57:25 44° E 18:58:09 42° ENE
Cosmos 1703 Rocket 3.4 18:55:55 10° S 19:00:22 85° E 19:02:12 36° NNE
SPOT 1/Viking Rocket 3.4 18:55:15 10° SSE 19:00:25 84° ENE 19:05:36 10° NNW
Resurs 1-3 3.5 19:00:35 10° SSE 19:04:53 88° WSW 19:09:15 10° NNW
USA 215 3.9 19:03:32 30° NE 19:06:05 42° N 19:12:08 10° WNW
Meteor 2-5 Rocket 3.9 19:02:28 10° SSE 19:07:38 50° ESE 19:07:38 50° ESE
Cosmos 1703 3.6 19:07:12 10° SSW 19:10:32 56° W 19:10:32 56° W
Cosmos 841 Rocket 3.9 19:06:45 10° SW 19:11:57 62° WNW 19:15:03 24° N
Cosmos 1656 Rocket 3.5 19:06:55 10° NNW 19:12:26 88° ENE 19:14:50 36° SSE
Okean 1-7 4.4 19:11:47 10° SW 19:15:46 37° WNW 19:19:46 10° N
SL-16 R/B 2.0 19:16:25 10° SSW 19:22:04 80° ESE 19:22:50 67° NE
Cosmos 1553 Rocket 3.9 19:18:10 10° N 19:23:51 61° ENE 19:23:51 61° ENE
ADEOS 3.6 19:29:31 66° N 19:29:31 66° N 19:34:02 10° NNW
Resurs 01 Rocket 4.1 19:34:52 12° N 19:34:52 12° N 19:35:07 10° N
Cosmos 1818 4.2 19:29:39 10° NW 19:34:57 52° WSW 19:37:01 33° S
Cosmos 1092 Rocket 4.2 19:32:38 10° SSW 19:38:47 70° W 19:45:03 10° N
Cosmos 2369 Rocket 2.1 19:33:23 10° NNW 19:38:45 82° NW 19:38:45 82° NW
ACS3 Solar Sail 3.3 19:34:19 10° SSW 19:40:07 36° W 19:45:59 10° NNW
ATLAS 2AS CENTAUR R/B 3.0 19:37:12 10° NW 19:43:51 60° WSW 19:46:35 35° S
CZ-4B DEB 4.5 19:53:53 64° WNW 19:53:53 64° WNW 19:58:42 10° NNW
Cosmos 839 Rocket 4.0 19:46:42 10° SSW 19:52:33 72° SSW 19:52:33 72° SSW
Cosmos 2297 4.3 19:56:31 10° NW 20:02:06 53° WSW 20:02:16 53° WSW
Cosmos 2237 Rocket 4.4 20:13:51 10° W 20:17:52 19° NW 20:19:48 16° NNW
CZ-4C R/B 4.2 20:35:48 10° W 20:38:07 21° NW 20:38:07 21° NW
USA 215 4.5 20:50:53 34° NW 20:50:53 34° NW 20:54:39 10° NW
